sat.trackr.live / text

‹ back to catalog

STARLINK-4305

NORAD 53060 · 2022-077T

PAYLOAD ACTIVE UNKNOWN

§ Identity

Operator
Country
US
Launch date
2022-07-11
Launch site
AFWTR
Launch vehicle
Mass (kg)
RCS (m²)

Purposes: comms

External: N2YO · Heavens-Above · Gunter

§ Orbital elements

Epoch: 2026-05-25T01:23:16.065312Z

Period
95.64 min
Inclination
97.4464°
Eccentricity
0.0000469
Mean motion
15.05588153 rev/d
Perigee alt
549.4 km
Apogee alt
550.0 km
Semi-major
6,927.8 km
B*
8.1472e-4
RAAN
324.9292°
Arg perigee
105.1520°
Mean anomaly
254.9759°
Rev number
21,239

§ Raw data

STARLINK-43051 53060U 22077T   26145.05782483  .00011696  00000+0  81472-3 0  99942 53060  97.4464 324.9292 0000469 105.1520 254.9759 15.05588153212393

JSON: /api/v1/satellites/53060 · /tle

For live sub-satellite position, see the globe view (requires WebGL).

§ Visibility from observer

Set your observer location to see the next 7 days of passes ≥ 10°. The values pass through the URL so the page stays shareable.

No JS? Fill the form by hand. The geolocation button needs JavaScript.